Regional Weather Roundup
Issued by NWS Mt. Holly, NJ

Home | Current Version | Previous Version | Text Only | Print | Product List | Glossary On
Versions: 1 2 3 4 5 6 7 8 9 10 11 12 13 14 15 16 17 18 19 20 21 22 23 24 25 26 27 28 29 30 31 32 33 34 35 36 37 38 39 40 41 42 43 44 45 46 47 48 49 50
000
ASUS41 KPHI 131710
RWRPHI

REGIONAL WEATHER ROUNDUP
NATIONAL WEATHER SERVICE MOUNT HOLLY NJ
100 PM EDT SUN JUL 13 2014

NOTE:  "FAIR" INDICATES FEW OR NO CLOUDS BELOW 12,000 FEET WITH NO
SIGNIFICANT WEATHER AND/OR OBSTRUCTIONS TO VISIBILITY.

 * = STATION DOES NOT REPORT PRECIPITATION (E.G. RAIN, SNOW, ETC.)
        OR FOG.

NJZ015>026-131800-
SOUTHERN NEW JERSEY

CITY           SKY/WX    TMP DP  RH WIND       PRES   REMARKS
POMONA         PTSUNNY   80  71  74 S13       30.05F
RIO GRANDE*    SUNNY     81  70  69 S17       30.07F
MILLVILLE      MOSUNNY   80  73  79 S8G17     30.04F
WRIGHTSTOWN    MOSUNNY   87  70  57 SW18G24   30.00F HX  92
MOUNT HOLLY    CLOUDY    87  71  58 VRB6      30.01F HX  93
TRENTON        PTSUNNY   83  71  67 SW13      30.01F

$$
NJZ001>014-131800-
NORTHERN NEW JERSEY

CITY           SKY/WX    TMP DP  RH WIND       PRES   REMARKS
SUSSEX         CLOUDY    81  71  71 S7G16     30.00F
ANDOVER*         N/A     78  70  76 S8        30.02F
MORRISTOWN     CLOUDY    81  72  74 SW14G20   30.02F
NEWARK         PTSUNNY   83  70  64 S12       30.02F
TETERBORO      PTSUNNY   85  68  56 S13G21    30.01F
CALDWELL       CLOUDY    80  70  71 SW8       30.02F
SOMERVILLE     CLOUDY    81  70  69 S8G17     29.99F
ALLAIRE*       PTSUNNY   79  70  73 SE13      30.04S
TOMS RIVER*    SUNNY     84  70  61 S13G18    30.04F

$$
PAZ043-044-047-054-055-060>062-066>071-131800-
EASTERN PENNSYLVANIA

CITY           SKY/WX    TMP DP  RH WIND       PRES   REMARKS
PHILADELPHIA   PTSUNNY   88  69  53 SW13G21   30.01F HX  92
NORTH PHILA    CLOUDY    86  69  56 SW8       30.02F HX  90
BLUE BELL      PTSUNNY   86  73  66 SW8       30.00F HX  93
DOYLESTOWN     PTSUNNY   82  72  71 SW10      30.01F
QUAKERTOWN*    MOSUNNY   84  72  65 S8        30.02F
POTTSTOWN      PTSUNNY   84  71  65 SW6       30.02F
LANCASTER      MOSUNNY   83  71  67 S7        30.00F
COATESVILLE    MOSUNNY   81  73  78 S5        30.04S
READING        MOSUNNY   85  72  65 S10       29.98F HX  91
ALLENTOWN      PTSUNNY   85  70  60 S13       29.99F
MOUNT POCONO   CLOUDY    78  67  68 S14G20    30.05F
HAZLETON       CLOUDY    77  70  78 S9        30.05F
WILKES BARRE   CLOUDY    83  67  58 S9G17     29.97F

$$
DEZALL-MDZ008-012-015-019-020-131800-
DELAWARE AND EASTERN MARYLAND

CITY           SKY/WX    TMP DP  RH WIND       PRES   REMARKS
WILMINGTON     MOSUNNY   87  72  60 SW15      30.02F HX  93
DOVER          SUNNY     89  73  59 S18G29    30.01F HX  96
GEORGETOWN     MOSUNNY   89  72  56 S17       30.05F HX  96
EASTON         MOSUNNY   90  73  58 SW13G18   30.07F HX  98
PATUXENT       PTSUNNY   86  71  60 SW13G21   30.04F HX  91
OCEAN CITY     MOSUNNY   80  73  79 S10G21    30.08F
WALLOPS ISLAND PTSUNNY   80  74  81 S16       30.09F
SALISBURY      MOSUNNY   90  71  53 S17       30.06F HX  96

$$
PAZ001-021-NYZ056-072-MDZ011-DCZ001-131800-
OTHER NEARBY LOCATIONS

CITY           SKY/WX    TMP DP  RH WIND       PRES   REMARKS
HARRISBURG     PTSUNNY   84  71  65 S8        29.98F
STATE COLLEGE  RAIN      77  70  78 SW8       29.98S
WILLIAMSPORT   CLOUDY    82  69  64 S12       29.93F
BINGHAMTON     LGT RAIN  75  68  78 SW9       29.97F
NEW YORK CITY  MOSUNNY   81  68  64 VRB5      30.05F
BALTIMORE      PTSUNNY   89  68  49 SW7G16    30.01F HX  93
WASHINGTON DC  PTSUNNY   88  72  58 S15       30.02F HX  94

$$


USA.gov is the U.S. government's official web portal to all federal, state and local government web resources and services.